• Join FlightAware (Why Join?)
  • Login
  • US Flag 
03:49AM EST


 

Airport Tracker/Info


-or-


 

Live Flight TrackerFlight Track Log ✈ EJA583 ✈ 11-Sep-2013 ✈ KRAP - KJAC

Flight Track Log - Related Links

Times and Time Zones

All times are in EDT time to prevent confusion due to time zone crossing. See the EJA583 flight status page for this flight to view local times or setup timezone preferences in your user account.

Time Position Orientation Groundspeed Altitude Reporting Facility
EDT Latitude Longitude Course Direction KTS MPH feet Rate Location/Type
12:33PM 44.0508 -103.0636 301° West 164 189 3,600  Level Denver Center
12:34PM 44.0800 -103.1322 301° West 232 267 6,900 3,078 Climbing Denver Center
12:35PM 44.0789 -103.2189 269° West 283 326 9,500 2,754 Climbing Denver Center
12:35PM 44.0789 -103.2267 270° West 287 330 9,700 2,476 Climbing Denver Center
12:36PM 44.0700 -103.3317 263° West 295 339 12,100 2,672 Climbing Denver Center
12:37PM 44.0553 -103.4619 261° West 306 352 15,000 2,516 Climbing Denver Center
12:38PM 44.0433 -103.5747 262° West 309 356 17,300 2,032 Climbing Denver Center
12:39PM 44.0306 -103.7197 263° West 327 376 19,200 1,887 Climbing Denver Center
12:40PM 44.0169 -103.8478 262° West 343 395 21,200 2,129 Climbing Denver Center
12:41PM 44.0017 -103.9986 262° West 351 404 23,600 1,935 Climbing Denver Center
12:42PM 43.9881 -104.1244 261° West 348 400 25,200 1,500 Climbing Denver Center
12:43PM 43.9708 -104.2861 262° West 368 423 26,700 1,403 Climbing Denver Center
12:44PM 43.9561 -104.4231 262° West 374 430 28,100 1,306 Climbing Denver Center
12:45PM 43.9406 -104.5583 261° West 375 432 29,400 1,403 Climbing Denver Center
12:46PM 43.9236 -104.7178 262° West 374 430 31,000 1,403 Climbing Denver Center
12:47PM 43.9086 -104.8539 261° West 374 430 32,300 1,403 Climbing Denver Center
12:48PM 43.8903 -105.0122 261° West 374 430 33,900 823 Climbing Denver Center
12:49PM 43.8744 -105.1522 261° West 381 438 34,000 48 Climbing Denver Center
12:50PM 43.8536 -105.3272 261° West 403 464 34,000  Level Denver Center
12:51PM 43.8367 -105.4811 261° West 415 478 34,000  Level Denver Center
12:52PM 43.8153 -105.6517 260° West 410 472 34,000  Level Denver Center
12:53PM 43.7992 -105.7917 261° West 396 456 34,000  Level Denver Center
12:54PM 43.7781 -105.9542 260° West 387 445 34,000  Level Denver Center
12:55PM 43.7606 -106.0919 260° West 382 440 34,000  Level Denver Center
12:57PM 43.7419 -106.2494 261° West 374 430 34,000  Level Denver Center
12:58PM 43.7236 -106.3836 259° West 372 428 34,000  Level Denver Center
12:59PM 43.7042 -106.5411 260° West 372 428 34,000  Level Denver Center
01:00PM 43.6858 -106.6753 259° West 373 429 34,000  Level Denver Center
01:01PM 43.6689 -106.8297 261° West 366 421 34,000  Level Denver Center
01:02PM 43.6664 -106.9494 268° West 373 429 34,000  Level Salt Lake Center
01:03PM 43.6661 -107.0931 270° West 375 432 34,000  Level Salt Lake Center
01:04PM 43.6661 -107.2381 270° West 378 435 34,000  Level Salt Lake Center
01:05PM 43.6653 -107.4128 270° West 380 437 34,000  Level Salt Lake Center
01:06PM 43.6650 -107.5597 270° West 382 440 34,000  Level Salt Lake Center
01:07PM 43.6644 -107.7078 270° West 385 443 34,000  Level Salt Lake Center
01:08PM 43.6631 -107.8561 269° West 388 447 34,000  Level Salt Lake Center
01:09PM 43.6622 -108.0047 270° West 388 447 34,000  Level Salt Lake Center
01:10PM 43.6617 -108.1536 270° West 389 448 34,000  Level Salt Lake Center
01:11PM 43.6594 -108.3339 269° West 391 450 34,000  Level Salt Lake Center
01:12PM 43.6575 -108.4836 269° West 391 450 34,000  Level Salt Lake Center
01:13PM 43.6556 -108.6344 269° West 393 452 34,000 -48 Level Salt Lake Center
01:14PM 43.6531 -108.7853 269° West 394 453 33,900 -1,597 Descending Salt Lake Center
01:15PM 43.6508 -108.9419 269° West 407 468 30,700 -3,194 Descending Salt Lake Center
01:16PM 43.6442 -109.1028 267° West 418 481 27,300 -3,629 Descending Salt Lake Center
01:17PM 43.6397 -109.2928 268° West 414 476 23,200 -3,629 Descending Salt Lake Center
01:18PM 43.6364 -109.4461 268° West 405 466 19,800 -3,145 Descending Salt Lake Center
01:19PM 43.6322 -109.6006 268° West 397 457 16,700 -1,790 Descending Salt Lake Center
01:20PM 43.6289 -109.7447 268° West 395 455 16,100 -339 Descending Salt Lake Center
01:21PM 43.6239 -109.9064 268° West 383 441 16,000 -726 Descending Salt Lake Center
01:22PM 43.6217 -110.0500 269° West 377 434 14,600 -968 Descending Salt Lake Center
01:23PM 43.6175 -110.1922 268° West 374 430 14,000 -290 Descending Salt Lake Center
01:24PM 43.6125 -110.3317 267° West 368 423 14,000  Level Salt Lake Center
01:25PM 43.6056 -110.4425 265° West 295 339 14,000  Level Salt Lake Center
01:26PM 43.5975 -110.5325 263° West 244 281 14,000 -1,161 Level Salt Lake Center
01:27PM 43.5556 -110.6111 234° Southwest 215 247 11,600 -2,468 Descending Salt Lake Center
01:28PM 43.5506 -110.6853 265° West 204 235 8,900 -2,129 Descending Salt Lake Center
01:29PM 43.5608 -110.7494 282° West 183 211 7,200 -1,065 Descending Salt Lake Center
01:31PM 43.5956 -110.7428 North 151 174 6,700 -484 Descending Salt Lake Center